Probability
3 3 6 0 3 3 3 3 3 0 0 0 0 0 0 0 0 0 0 0 0 0 0 0 0 0 3 3 3 3 0 0 0 0 0 0 0 0 0 0 0 0 0
3 3 3 3 3 3 3 3 3 3 0 0 0 0 0 0 0 0 0 0 0 0 0 0 0 0 0 0 0 0 0 0 0 0 0 0 0 0 0 0 0 0 0
3 3 6 6 3 3 3 3 3 3 0 0 0 0 0 0 0 0 0 0 0 0 0 0 0 0 0 0 0 0 0 0 0 0 0 0 0 0 0 0 0 0 0
6 0 3 3 0 3 6 3 3 3 0 0 0 0 0 0 0 0 0 0 0 0 0 0 0 0 0 0 0 0 0 0 0 0 0 0 0 0 0 0 0 0 0
3 0 3 3 0 0 3 3 3 3 0 0 0 0 0 0 0 0 0 0 0 0 0 0 0 0 0 0 0 0 0 0 0 0 0 0 0 0 0 0 0 0 0
0 0 0 3 3 3 0 0 3 3 0 0 0 0 0 0 0 0 0 0 0 0 0 0 0 0 0 0 0 0 0 0 0 0 0 0 0 0 0 0 0 0 0
0 0 0 3 3 3 3 0 0 0 0 0 0 0 0 0 0 0 0 0 0 0 0 0 0 0 0 0 0 0 0 0 0 0 0 0 0 0 0 0 0 0 0
0 0 0 0 3 3 3 3 0 0 0 0 0 0 0 0 0 0 0 0 0 0 0 0 0 0 0 0 0 0 0 0 0 0 0 0 0 0 0 0 0 0 0
0 0 0 0 0 0 0 3 3 0 0 0 0 0 0 0 0 0 0 0 0 0 0 0 0 0 0 0 0 0 0 0 0 0 0 0 0 0 0 0 0 0 0
0 3 0 0 0 0 0 0 0 0 0 0 0 0 0 0 0 0 0 0 0 0 0 0 0 0 0 0 0 0 0 0 0 0 0 0 0 0 0 0 0 0 0
0 3 3 3 3 3 3 3 0 0 0 0 0 0 0 0 0 0 0 0 0 0 0 0 0 0 0 0 0 0 0 0 0 0 0 0 0 0 0 0 0 0 0
0 0 0 3 3 3 3 3 3 0 0 0 0 0 0 0 0 0 0 0 0 0 0 0 0 0 0 0 0 0 0 0 0 0 0 0 0 0 0 0 0 0 0
0 0 0 0 0 3 3 3 3 3 0 0 0 0 0 0 0 0 0 0 0 0 0 0 0 0 0 0 0 0 0 0 0 0 0 0 0 0 0 0 0 0 0
0 0 0 0 0 0 0 3 3 3 3 0 0 0 0 0 0 0 0 0 0 0 0 0 0 0 0 0 0 0 0 0 0 0 0 0 0 0 0 0 0 0 0
0 0 0 0 0 0 0 0 0 0 0 0 0 0 0 0 0 0 0 0 0 0 0 0 0 0 0 0 0 0 0 0 0 0 0 0 0 0 0 0 0 0 0
0 0 0 0 0 0 0 0 0 0 0 0 0 0 0 0 0 0 0 0 0 0 0 0 0 0 0 0 0 0 0 0 0 0 0 0 0 0 0 0 0 0 0
0 0 0 0 0 0 0 0 0 0 0 0 0 0 0 0 0 0 0 0 0 0 0 0 0 0 0 0 0 0 0 0 0 0 0 0 0 0 0 0 0 0 0
0 0 0 0 0 0 0 0 0 0 0 0 0 0 0 0 0 0 0 0 0 0 0 0 0 0 0 0 0 0 0 0 0 0 0 0 0 0 0 0 0 0 0
0 0 0 0 0 0 0 0 0 0 0 0 0 0 0 0 0 0 0 0 0 0 0 0 0 0 0 0 0 0 0 0 0 0 0 0 0 0 0 0 0 0 0
0 0 0 0 0 0 0 0 0 0 0 0 0 0 0 0 0 0 0 0 0 0 0 0 0 0 0 0 0 0 0 0 0 0 0 0 0 0 0 0 0 0 0
0 0 0 0 0 0 0 0 0 0 0 0 0 0 0 0 0 0 0 0 0 0 0 0 0 0 0 0 0 0 0 0 0 0 0 0 0 0 0 0 0 0 0
0 0 0 0 0 0 0 0 0 0 0 0 0 0 0 0 0 0 0 0 0 0 0 0 0 0 0 0 0 0 0 0 0 0 0 0 0 0 0 0 0 0 0
0 0 0 0 0 0 0 0 0 0 0 0 0 0 0 0 0 0 0 0 0 0 0 0 0 0 0 0 0 0 0 0 0 0 0 0 0 0 0 0 0 0 0
0 0 0 0 0 0 0 0 0 0 0 0 0 0 0 0 0 0 0 0 0 0 0 0 0 0 0 0 0 0 0 0 0 0 0 0 0 0 0 0 0 0 0
0 0 0 0 0 0 0 0 0 0 0 0 0 0 0 0 0 0 0 0 0 0 0 0 0 0 0 0 0 0 0 0 0 0 0 0 0 0 0 0 0 0 0
0 0 0 0 0 0 0 0 0 0 0 0 0 0 0 0 0 0 0 0 0 0 0 0 0 0 0 0 0 0 0 0 0 0 0 0 0 0 0 0 0 0 0
Height
5795 5794 5794 5794 5793 5792 5791 5790 5790 5789 5788 5787 5786 5785 5784 5783 5782 5781 5780 5779 5779 5779 5778 5777 5777 5777 5777 5776 5776 5775 5775 5775 5775 5776 5776 5777 5778 5778 5778 5778 5778 5778 5777
5790 5790 5789 5789 5788 5787 5786 5786 5785 5784 5783 5782 5781 5780 5778 5777 5776 5775 5774 5774 5773 5773 5772 5772 5772 5772 5772 5771 5771 5770 5770 5771 5771 5771 5772 5772 5773 5773 5773 5773 5773 5773 5772
5785 5785 5784 5784 5783 5782 5781 5780 5779 5778 5777 5776 5775 5774 5773 5772 5771 5770 5769 5768 5768 5767 5767 5767 5766 5766 5766 5766 5766 5766 5766 5766 5766 5766 5767 5767 5768 5768 5768 5768 5768 5767 5767
5779 5779 5779 5778 5777 5776 5776 5775 5774 5773 5772 5771 5770 5769 5768 5767 5766 5765 5764 5763 5763 5762 5762 5762 5761 5761 5761 5761 5761 5761 5761 5762 5762 5762 5762 5762 5763 5763 5763 5763 5763 5762 5762
5774 5773 5773 5772 5771 5770 5770 5769 5768 5768 5766 5765 5764 5763 5762 5761 5761 5760 5759 5758 5758 5757 5757 5757 5756 5756 5756 5756 5756 5756 5756 5757 5757 5757 5758 5758 5758 5758 5758 5758 5757 5757 5756
5768 5767 5766 5766 5765 5764 5764 5763 5762 5761 5760 5759 5758 5757 5757 5756 5755 5755 5754 5753 5753 5752 5752 5752 5752 5751 5751 5751 5751 5751 5751 5752 5752 5752 5753 5753 5753 5753 5753 5752 5752 5752 5751
5761 5761 5761 5760 5759 5759 5758 5757 5756 5755 5754 5753 5753 5752 5751 5750 5750 5749 5749 5748 5748 5747 5747 5747 5747 5746 5746 5746 5746 5746 5746 5746 5747 5747 5748 5748 5748 5748 5748 5747 5746 5746 5745
5755 5755 5754 5754 5753 5752 5752 5751 5750 5749 5748 5748 5747 5747 5746 5745 5744 5744 5743 5743 5743 5742 5742 5742 5742 5741 5741 5741 5741 5742 5742 5741 5742 5742 5742 5742 5742 5742 5742 5741 5741 5740 5739
5749 5749 5748 5748 5747 5746 5745 5744 5744 5743 5742 5741 5741 5740 5740 5739 5739 5738 5737 5737 5737 5737 5736 5736 5736 5736 5736 5736 5736 5736 5737 5737 5737 5737 5737 5737 5736 5736 5736 5735 5735 5735 5734
5742 5742 5741 5741 5740 5739 5739 5738 5737 5736 5736 5735 5735 5734 5734 5733 5733 5732 5731 5731 5731 5731 5730 5730 5730 5730 5730 5730 5730 5731 5731 5731 5731 5731 5731 5731 5731 5730 5730 5729 5729 5728 5727
5735 5734 5734 5734 5733 5732 5732 5731 5730 5730 5729 5729 5729 5728 5727 5726 5726 5725 5724 5724 5724 5724 5724 5724 5724 5724 5724 5724 5724 5725 5725 5725 5725 5725 5725 5725 5725 5724 5724 5723 5722 5722 5721
5727 5727 5727 5726 5726 5725 5725 5724 5723 5723 5723 5722 5722 5722 5721 5720 5719 5718 5718 5717 5717 5717 5717 5717 5717 5717 5717 5717 5717 5718 5718 5718 5718 5719 5719 5719 5719 5718 5717 5716 5716 5715 5713
5720 5720 5719 5719 5718 5718 5717 5716 5716 5716 5715 5715 5715 5714 5714 5713 5712 5711 5711 5710 5710 5709 5709 5709 5709 5709 5709 5709 5710 5710 5710 5711 5711 5711 5711 5711 5711 5711 5710 5709 5709 5708 5706
5712 5712 5711 5711 5711 5710 5709 5709 5709 5708 5708 5707 5707 5707 5706 5705 5705 5704 5703 5702 5702 5701 5701 5701 5701 5701 5702 5702 5702 5702 5702 5703 5703 5703 5703 5703 5703 5703 5703 5702 5701 5700 5699
5703 5703 5703 5703 5702 5702 5702 5701 5701 5700 5699 5699 5699 5698 5697 5697 5696 5695 5695 5694 5693 5693 5693 5693 5693 5693 5693 5693 5693 5693 5694 5694 5695 5695 5695 5695 5695 5695 5694 5693 5693 5692 5691
5694 5694 5694 5694 5694 5693 5693 5693 5692 5692 5691 5690 5690 5689 5688 5688 5687 5686 5685 5685 5684 5684 5684 5684 5684 5684 5684 5684 5684 5685 5685 5686 5686 5686 5686 5686 5686 5686 5685 5685 5684 5684 5683
5684 5684 5684 5684 5684 5684 5684 5683 5683 5683 5682 5681 5681 5680 5679 5678 5677 5676 5675 5675 5674 5674 5675 5675 5675 5675 5675 5675 5675 5675 5676 5676 5677 5677 5677 5677 5677 5677 5676 5676 5675 5675 5674
5674 5674 5674 5674 5674 5674 5674 5674 5674 5673 5673 5672 5671 5670 5669 5668 5667 5666 5666 5665 5665 5665 5665 5665 5665 5665 5665 5665 5666 5666 5666 5667 5667 5667 5668 5667 5667 5667 5667 5666 5666 5665 5664
5664 5664 5664 5665 5664 5664 5665 5664 5664 5663 5663 5663 5662 5660 5659 5658 5657 5656 5656 5656 5655 5655 5655 5655 5654 5655 5655 5655 5656 5656 5656 5657 5657 5657 5657 5657 5657 5657 5657 5656 5656 5655 5654
5654 5654 5654 5654 5654 5654 5654 5654 5654 5653 5653 5652 5652 5650 5649 5648 5647 5647 5646 5646 5646 5645 5645 5645 5644 5644 5645 5645 5646 5646 5646 5647 5647 5647 5647 5647 5647 5647 5646 5646 5645 5645 5644
5644 5644 5644 5644 5644 5644 5643 5643 5643 5642 5642 5641 5641 5640 5638 5638 5637 5637 5636 5636 5636 5635 5635 5635 5634 5634 5635 5635 5636 5636 5636 5637 5637 5637 5637 5637 5636 5636 5636 5635 5635 5634 5633
5633 5633 5633 5633 5633 5633 5633 5632 5632 5632 5631 5631 5630 5629 5628 5627 5627 5627 5626 5626 5626 5626 5625 5625 5625 5625 5625 5625 5626 5626 5626 5626 5626 5626 5626 5626 5626 5625 5625 5624 5623 5622 5621
5622 5622 5623 5622 5622 5622 5622 5621 5621 5621 5620 5620 5619 5619 5618 5618 5617 5617 5616 5616 5615 5615 5615 5615 5615 5615 5615 5615 5616 5616 5616 5616 5616 5615 5615 5615 5615 5615 5614 5613 5612 5611 5610
5612 5612 5612 5612 5611 5611 5610 5610 5610 5610 5609 5609 5609 5608 5607 5607 5607 5607 5606 5606 5605 5605 5605 5605 5605 5605 5605 5605 5605 5605 5605 5605 5605 5605 5605 5605 5604 5604 5603 5602 5601 5600 5599
5602 5602 5601 5601 5601 5600 5600 5600 5599 5599 5598 5598 5597 5597 5597 5596 5596 5596 5595 5595 5594 5594 5594 5594 5594 5595 5595 5595 5595 5594 5595 5594 5594 5594 5594 5594 5593 5593 5592 5591 5590 5589 5588
5592 5591 5591 5591 5590 5590 5590 5589 5589 5588 5587 5587 5586 5586 5586 5585 5585 5585 5584 5584 5583 5583 5584 5584 5584 5584 5584 5584 5584 5584 5583 5583 5583 5583 5583 5582 5582 5581 5581 5580 5579 5578 5577
Wind_Speed
19 19 19 18 19 19 18 18 18 18 18 18 18 19 19 19 19 20 19 19 18 18 18 18 18 18 19 18 18 18 18 18 18 17 17 16 16 17 17 18 18 18 18
19 19 19 19 19 19 19 19 19 19 19 19 19 20 20 20 20 20 20 19 18 18 18 18 18 18 18 18 19 18 17 17 17 17 17 17 17 16 17 18 18 18 18
20 19 19 20 20 20 19 20 20 20 20 20 20 21 20 19 19 19 18 18 18 18 18 18 18 18 18 18 18 18 17 17 17 17 17 17 17 17 17 17 18 18 18
21 21 21 20 21 21 21 20 20 20 21 21 20 20 19 19 18 17 18 18 18 18 18 18 18 18 18 18 17 16 16 17 17 17 17 17 18 18 18 18 18 19 18
21 22 22 22 22 21 22 22 22 21 21 21 20 19 19 19 18 17 17 17 17 18 18 18 18 18 18 18 17 17 16 17 17 17 17 17 17 18 18 18 18 19 18
21 22 22 23 22 22 22 23 22 21 21 21 21 20 19 19 19 18 17 17 17 18 17 18 18 18 18 18 18 18 17 17 17 17 17 17 18 18 17 17 18 18 19
22 22 22 22 22 22 23 23 23 23 22 21 20 20 20 19 19 19 18 19 19 18 18 18 18 18 17 18 18 18 18 17 17 17 17 17 18 18 17 18 18 18 18
23 23 23 23 22 22 23 23 24 24 24 22 21 21 20 20 20 20 20 19 19 19 18 18 18 18 18 18 18 19 19 18 18 18 18 18 18 18 18 18 18 19 19
24 24 23 23 23 23 23 23 23 23 23 23 22 22 21 21 21 22 21 21 20 19 19 19 19 19 19 19 19 18 18 18 18 19 19 19 19 19 19 19 19 19 20
24 24 24 24 24 24 24 24 24 23 23 23 23 23 23 23 23 23 23 23 21 20 20 20 20 21 20 20 20 19 19 19 19 19 19 19 19 19 19 19 19 20 20
26 25 25 25 25 24 24 24 24 23 23 22 23 23 23 24 23 23 24 24 23 22 21 21 21 21 22 21 22 22 21 20 20 21 20 20 20 20 20 20 20 21 21
26 26 26 26 26 25 24 24 24 24 24 23 23 23 24 24 24 24 24 24 24 23 23 23 23 23 23 23 23 23 24 23 22 22 22 21 21 21 21 22 22 22 22
26 26 26 26 26 26 25 25 25 25 25 25 24 24 25 25 25 25 25 26 25 25 25 25 25 25 25 25 25 25 25 25 25 24 23 23 23 23 23 23 22 23 23
26 26 26 26 26 26 26 26 26 26 26 26 26 26 26 25 26 26 26 26 25 25 26 26 26 26 26 27 27 27 26 26 26 25 25 25 25 25 25 24 23 23 23
28 28 28 28 27 27 27 27 28 28 28 27 28 27 27 27 27 27 27 27 27 27 27 27 27 28 28 28 28 28 28 27 27 27 26 25 26 26 26 25 25 25 25
30 30 30 29 29 29 29 29 29 29 29 29 29 28 28 29 29 30 30 29 29 29 29 29 29 29 28 28 28 28 28 28 27 27 27 27 27 27 27 26 26 26 26
31 30 30 30 30 30 30 30 29 30 30 31 31 31 31 31 30 31 30 30 30 30 30 30 30 29 29 28 29 29 29 29 29 29 29 29 29 28 28 27 27 28 28
31 31 31 31 30 30 30 30 31 31 31 31 32 32 32 32 31 31 31 30 29 30 30 30 31 30 30 30 30 30 30 30 30 30 30 30 30 29 29 29 29 29 29
31 31 31 31 31 31 31 32 32 33 33 33 33 33 33 32 32 32 32 31 30 30 30 30 31 31 31 31 30 30 30 30 30 30 30 31 31 31 30 30 30 30 30
32 32 31 32 32 33 33 34 34 34 34 34 33 33 33 32 32 32 32 32 31 30 30 30 30 31 31 31 31 31 31 31 31 30 31 31 31 32 31 31 31 31 32
33 33 32 32 33 34 34 34 34 34 34 33 33 32 32 32 32 32 31 31 30 29 30 30 30 30 30 30 30 31 31 31 31 31 32 32 31 32 33 32 32 33 33
33 33 33 33 33 33 33 33 32 33 33 33 32 31 31 31 31 30 30 31 31 31 30 30 30 30 30 30 30 30 30 30 30 31 31 31 31 32 32 33 33 33 33
31 32 32 32 32 33 33 33 33 33 33 33 32 32 32 31 31 31 31 31 32 32 31 30 30 30 30 31 31 31 31 31 30 31 31 30 30 31 31 32 33 33 34
31 31 32 32 32 32 32 33 33 34 33 33 32 32 32 32 32 32 32 33 32 32 31 30 30 30 30 31 32 32 32 32 31 31 31 31 31 31 31 32 32 33 34
31 31 31 31 31 32 32 33 34 34 33 33 33 32 32 32 32 32 32 33 33 31 31 31 31 31 31 31 32 32 32 32 32 32 32 31 31 31 32 32 33 33 33
30 30 30 31 31 32 33 33 33 33 33 33 33 33 33 33 33 33 33 33 32 32 32 32 32 32 32 32 32 32 33 33 33 33 33 32 32 33 33 33 33 33 32
Wind_Direction
279 278 279 282 284 285 286 287 289 289 288 289 288 289 290 289 289 287 284 284 281 277 276 276 275 275 276 276 278 277 277 277 276 274 275 276 278 277 278 278 279 282 282
278 278 279 281 283 284 286 285 286 288 289 288 288 289 290 290 290 288 285 282 280 278 275 276 276 275 275 275 276 276 275 276 276 276 274 276 277 278 280 280 280 282 282
277 278 279 280 281 283 284 284 285 287 288 287 287 287 288 289 289 288 285 283 279 277 275 277 276 274 274 275 275 273 274 276 275 276 276 275 275 275 279 279 278 282 283
278 278 278 280 281 281 283 284 285 285 284 285 286 286 286 288 289 289 287 284 282 278 278 276 275 273 274 275 273 272 274 274 275 276 276 276 276 276 278 278 279 281 284
279 279 279 280 280 280 280 282 283 284 284 283 284 284 284 286 287 287 287 285 285 282 279 276 276 275 273 273 271 272 274 273 274 274 275 276 278 279 279 279 280 282 286
281 280 280 280 280 280 280 281 281 283 284 282 282 282 282 282 283 284 284 285 285 285 282 281 277 275 272 272 272 273 274 275 274 273 273 276 280 281 282 283 282 283 285
281 282 283 283 281 281 281 280 281 282 284 285 282 282 281 281 281 281 281 282 283 282 281 280 277 275 275 274 273 275 276 275 274 272 272 277 280 280 281 283 283 284 285
280 282 283 283 283 282 281 281 280 280 280 281 282 281 280 281 281 280 281 281 281 281 280 278 277 276 275 274 272 274 275 276 277 275 275 277 279 279 281 282 282 285 287
278 280 281 282 282 283 283 282 281 281 280 279 279 281 281 278 279 280 280 280 280 281 279 277 275 274 274 274 272 272 273 275 276 276 276 275 277 280 282 282 283 284 287
277 279 280 278 279 281 282 282 281 280 280 280 280 281 282 281 279 280 281 279 277 276 277 277 275 273 271 273 273 273 273 273 275 276 277 276 277 279 282 282 284 286 289
277 277 278 279 279 279 280 280 280 278 278 278 280 282 283 284 282 283 282 278 275 273 274 275 275 274 273 273 272 272 272 273 275 275 276 276 277 279 281 283 284 285 288
276 277 277 278 280 280 280 280 280 278 277 278 280 281 282 284 283 283 282 279 277 276 275 275 274 273 274 273 270 271 271 272 275 275 275 276 277 278 280 281 282 284 286
275 275 276 278 279 280 281 280 279 280 279 280 281 282 282 282 283 284 283 282 280 279 277 276 275 274 273 272 271 271 272 272 274 275 275 275 277 279 280 281 282 284 286
274 275 276 277 277 278 279 279 279 280 280 281 281 281 281 281 282 281 280 279 280 279 277 276 276 275 274 272 270 271 271 272 275 275 274 274 276 278 279 278 279 282 285
274 275 275 275 276 276 277 277 278 279 280 281 282 282 282 281 279 278 279 277 277 276 276 276 276 275 275 272 271 270 269 269 271 273 272 273 274 275 276 275 277 280 283
273 273 274 274 275 275 274 275 277 279 280 281 283 284 283 282 281 279 278 277 276 275 275 275 276 276 275 272 270 269 269 270 270 270 271 271 274 276 275 274 276 279 282
273 273 274 274 274 274 275 276 277 280 281 282 283 284 284 283 282 281 280 278 276 275 275 275 275 275 273 271 270 269 269 269 270 271 271 272 273 274 273 273 275 277 279
272 273 274 275 274 275 276 277 278 279 281 282 283 285 285 283 282 281 281 280 278 277 276 276 274 272 271 270 270 270 269 269 269 271 273 274 274 273 273 274 275 276 278
271 271 272 274 275 274 274 276 278 279 280 281 282 283 284 283 281 280 280 279 278 277 277 276 272 270 269 269 269 268 268 269 270 271 272 273 274 274 274 275 276 277 278
272 272 273 274 275 274 274 275 276 279 280 280 281 282 282 281 280 279 278 278 278 277 276 275 274 271 268 267 268 269 269 269 269 270 271 272 272 274 275 277 278 279 280
271 273 273 274 275 275 275 276 277 278 278 279 280 281 280 279 279 279 277 276 277 278 276 275 274 272 269 269 269 270 270 270 270 270 270 270 272 274 277 277 278 279 279
274 274 275 274 276 276 275 276 276 278 279 280 281 280 279 278 278 278 277 277 278 278 277 276 275 272 270 269 269 270 271 272 272 271 270 272 274 276 277 277 278 280 280
276 275 276 276 276 277 277 276 276 278 279 279 280 279 278 277 278 278 278 278 277 277 276 274 273 271 271 270 269 268 270 272 271 272 272 273 274 277 277 278 278 280 281
277 276 277 278 278 278 278 278 277 277 278 279 278 277 277 276 276 277 278 278 277 276 275 274 272 271 272 271 270 269 269 270 270 270 271 272 274 276 278 279 279 280 281
276 276 277 278 278 277 278 278 278 278 278 278 278 277 276 276 277 278 279 279 278 276 274 273 273 272 271 271 270 269 269 270 271 271 272 272 273 275 277 279 280 280 280
276 276 275 277 277 278 278 278 279 279 279 279 279 278 277 276 277 277 278 278 277 274 274 274 272 271 269 269 269 270 270 270 271 272 273 273 275 276 277 278 280 280 279